Wind_Speed
31 33 33 34 35 34 34 35 35 36 37 35 35 35 35 35 35 36 36 36 37 38 38 38 38 39 39 40 41 42 42 43 43 43 44 44 45 44
30 31 32 33 33 33 34 35 36 36 35 34 33 34 34 34 34 35 35 36 36 37 37 36 36 38 39 40 40 41 41 42 42 43 43 43 42 41
28 28 29 30 30 31 32 33 33 33 33 33 34 34 34 34 34 34 34 34 34 34 34 35 36 37 38 38 39 40 40 40 41 40 40 39 38 37
27 27 27 28 29 30 30 31 31 31 31 31 32 33 32 33 33 32 32 32 33 34 34 35 36 36 37 37 38 38 39 38 37 36 35 34 32 31
26 26 26 27 26 27 28 28 28 28 29 30 29 29 30 31 30 31 31 31 32 33 33 34 34 35 35 36 36 36 35 34 33 31 30 29 28 27
24 24 24 25 25 25 26 26 26 26 27 27 27 28 28 29 28 29 29 30 31 31 32 32 33 33 34 34 33 32 31 30 28 27 26 25 25 25
23 23 23 24 25 25 25 25 25 25 25 25 26 26 26 26 27 28 28 29 29 29 30 31 31 31 31 30 30 29 28 27 26 25 24 23 22 22
23 23 23 23 22 23 23 24 24 23 23 23 24 24 24 24 25 26 27 27 28 29 29 29 29 28 28 28 27 26 26 25 24 23 22 20 20 19
21 21 20 21 21 20 21 21 21 22 22 21 22 23 23 24 25 25 26 26 27 28 27 27 27 26 26 25 25 24 23 22 22 20 19 18 17 16
18 18 18 18 18 18 19 20 20 20 20 21 22 22 23 23 24 24 25 25 26 26 25 25 24 24 24 23 22 21 20 19 18 17 15 15 14 14
16 16 17 17 17 18 18 18 19 19 20 21 21 21 22 22 22 23 23 23 23 23 22 22 21 21 21 20 19 18 17 16 14 13 13 12 13 13
14 15 15 16 17 17 17 18 18 19 20 21 21 21 21 21 21 21 21 21 21 21 20 20 20 19 18 17 16 15 14 13 12 11 11 11 12 13
14 14 15 16 16 16 17 17 18 19 20 20 20 20 20 20 19 19 19 19 19 19 19 18 17 17 16 15 14 13 12 11 10 10 10 11 11 13
12 13 13 14 15 15 16 16 17 17 18 18 18 18 17 17 17 16 17 17 17 17 17 16 15 15 14 13 12 11 10 10 9 10 10 11 12 13
10 11 12 13 14 14 15 15 15 15 15 15 15 15 14 14 14 14 15 15 15 15 14 13 13 13 12 12 11 10 9 9 9 10 10 11 12 13
9 10 11 12 12 12 13 13 12 12 12 12 12 12 12 12 12 13 13 14 14 13 12 11 11 10 10 10 10 9 9 9 9 10 11 12 13 14
8 9 9 10 10 10 10 10 10 9 9 10 10 10 10 11 11 12 12 12 12 11 10 10 9 10 10 9 9 8 9 9 10 10 11 12 13 14
6 7 7 7 7 7 7 6 7 7 8 8 8 9 9 9 10 10 10 10 9 9 8 9 9 9 9 8 8 8 9 9 10 11 12 13 14 15
4 4 4 4 3 4 4 5 5 6 7 7 7 7 8 8 8 8 8 7 7 7 8 8 8 8 8 8 8 8 9 10 11 12 13 14 15 16
1 1 2 2 2 3 3 4 5 5 5 6 6 6 5 5 6 6 6 6 6 7 7 7 8 8 7 8 8 9 10 11 12 13 15 15 16 16
3 3 3 3 3 3 3 3 3 4 4 4 4 4 4 4 5 5 6 6 6 6 6 7 7 7 7 8 9 10 11 12 14 15 15 16 17 17
6 5 5 5 5 4 4 4 4 4 4 4 4 4 4 4 5 5 6 6 6 6 7 7 7 8 9 10 11 12 13 14 15 16 16 17 17 17
8 7 7 7 7 7 6 6 5 5 5 5 5 5 5 5 5 6 6 6 6 7 7 8 9 10 11 12 13 14 15 16 16 17 17 17 17 17
Wind_Direction
246 246 247 248 247 248 249 251 254 255 258 261 263 265 267 269 272 273 273 274 276 278 280 282 285 286 287 289 291 292 293 294 295 295 296 296 296 297
246 246 245 247 248 250 250 252 254 256 258 260 263 265 267 269 271 272 272 275 277 280 282 284 286 288 290 291 293 294 295 296 297 297 297 297 298 298
248 248 246 247 246 249 251 251 253 256 257 260 262 265 267 268 272 273 275 278 280 283 284 287 289 291 293 294 295 296 297 297 298 299 299 299 299 299
247 247 247 248 249 251 252 252 253 254 256 259 263 266 268 272 275 276 279 282 284 285 287 289 291 292 294 295 296 297 298 299 299 300 301 302 302 302
246 247 248 248 251 252 253 254 256 258 260 264 267 270 274 277 278 280 282 284 286 289 291 291 292 294 296 297 298 299 299 300 301 302 303 303 303 304
246 248 249 250 254 255 254 256 259 262 264 267 271 275 277 279 281 283 285 288 290 292 293 294 295 296 297 298 299 300 300 302 302 303 303 303 305 306
246 248 251 253 254 254 257 259 261 265 268 272 275 276 279 282 286 288 289 291 292 294 295 296 297 298 299 299 300 301 301 301 302 303 304 304 306 307
247 248 249 251 251 254 257 261 264 268 271 274 277 280 284 287 289 290 291 293 294 295 296 297 298 299 300 300 300 301 301 301 302 303 303 303 306 308
247 247 250 253 256 259 262 263 266 269 273 277 281 285 287 289 290 292 293 294 295 297 297 298 298 299 300 301 301 300 300 300 301 301 301 302 306 310
248 248 250 254 257 261 264 267 270 273 276 280 283 286 289 290 291 292 293 295 296 297 297 298 299 300 302 302 302 301 300 300 301 300 300 303 307 312
248 249 251 256 260 263 266 269 271 275 279 282 285 288 289 291 292 294 295 296 297 298 299 300 301 301 302 303 303 302 301 300 300 301 302 306 309 314
251 253 255 259 262 263 267 270 274 279 283 285 288 289 291 293 294 295 296 297 298 299 300 301 301 301 302 302 302 303 301 299 299 301 306 310 313 318
257 260 261 263 264 265 270 275 280 284 286 288 288 290 292 294 295 296 297 298 299 299 300 300 300 302 302 302 303 303 300 298 299 303 308 311 316 322
262 263 267 271 274 274 277 279 282 284 286 288 290 292 294 295 296 297 298 298 299 300 301 300 300 302 302 302 303 302 300 300 302 307 311 316 320 325
267 268 274 278 280 281 281 282 283 284 289 292 293 294 294 296 297 298 299 300 301 301 301 300 300 301 301 300 301 302 302 302 305 309 314 319 322 325
276 279 281 282 284 284 284 286 289 292 294 294 294 295 296 297 298 300 302 304 303 302 301 300 299 300 300 300 300 301 302 304 307 311 316 321 323 326
283 285 284 284 284 286 288 290 292 294 295 296 296 298 299 301 303 305 306 307 305 304 303 302 302 303 303 302 301 303 304 306 310 314 318 322 325 327
288 288 286 287 288 290 291 294 298 302 303 302 301 302 305 307 309 311 311 311 309 307 307 307 308 308 305 303 302 304 306 310 313 316 319 322 325 327
293 297 297 300 302 304 305 307 310 312 311 309 308 310 312 314 316 318 319 317 315 313 313 313 313 312 311 308 307 308 310 313 315 317 319 321 323 325
16 11 8 357 339 326 322 322 320 319 319 319 320 322 324 325 327 329 330 330 326 323 322 321 320 320 318 315 314 315 315 316 318 319 320 320 322 323
79 68 52 39 25 13 4 357 350 346 345 342 341 342 342 341 338 338 338 337 335 331 328 326 324 321 319 317 317 317 317 317 318 319 320 320 321 322
81 74 66 58 50 47 44 41 35 28 22 16 13 10 3 356 351 348 346 343 340 336 333 329 324 320 317 316 316 317 317 317 318 319 319 320 320 321
81 75 70 64 61 59 58 56 53 49 44 40 34 26 17 8 2 357 351 346 341 336 331 327 323 320 318 316 316 316 317 318 318 319 319 319 319 318
Height
5796 5798 5799 5801 5802 5804 5805 5807 5808 5808 5809 5810 5809 5809 5809 5808 5807 5806 5805 5804 5803 5801 5799 5797 5794 5792 5790 5787 5784 5780 5777 5773 5769 5765 5761 5756 5752 5747
5789 5791 5792 5794 5795 5796 5797 5798 5800 5801 5801 5801 5801 5801 5800 5799 5799 5798 5796 5795 5794 5792 5790 5788 5785 5783 5780 5777 5774 5771 5767 5763 5759 5755 5750 5746 5741 5736
5782 5783 5785 5786 5787 5788 5789 5790 5791 5793 5793 5793 5793 5792 5792 5791 5790 5789 5788 5787 5785 5783 5781 5779 5777 5774 5772 5768 5765 5761 5758 5753 5749 5745 5740 5736 5732 5727
5776 5777 5778 5779 5780 5782 5783 5783 5784 5784 5785 5785 5785 5784 5784 5783 5782 5781 5779 5778 5776 5775 5773 5770 5768 5766 5763 5759 5756 5752 5748 5744 5740 5736 5732 5728 5723 5719
5769 5771 5772 5773 5774 5775 5776 5777 5777 5777 5777 5778 5777 5777 5776 5775 5774 5773 5771 5770 5768 5766 5764 5762 5760 5757 5754 5751 5747 5744 5740 5736 5732 5728 5724 5720 5717 5713
5764 5765 5766 5767 5768 5769 5770 5770 5771 5771 5771 5771 5771 5770 5769 5768 5767 5766 5764 5762 5761 5759 5756 5754 5752 5749 5746 5742 5739 5736 5732 5729 5725 5722 5718 5714 5711 5707
5758 5759 5761 5762 5763 5764 5764 5765 5765 5765 5765 5765 5764 5763 5762 5761 5760 5759 5757 5755 5753 5751 5749 5747 5744 5741 5738 5735 5732 5728 5725 5722 5719 5716 5713 5709 5706 5702
5752 5754 5755 5756 5757 5758 5759 5759 5759 5759 5759 5759 5758 5757 5756 5755 5754 5752 5751 5749 5747 5745 5742 5739 5736 5734 5731 5728 5725 5722 5719 5717 5714 5711 5707 5705 5702 5698
5747 5748 5749 5750 5751 5752 5753 5753 5754 5753 5753 5753 5752 5751 5750 5749 5748 5746 5744 5742 5740 5737 5735 5733 5730 5727 5724 5722 5719 5716 5714 5711 5708 5705 5703 5700 5697 5694
5742 5743 5744 5745 5746 5747 5747 5748 5748 5748 5748 5748 5747 5746 5744 5743 5741 5740 5738 5736 5733 5731 5729 5727 5724 5721 5718 5716 5713 5711 5708 5706 5703 5701 5699 5697 5694 5691
5737 5738 5739 5740 5741 5742 5743 5743 5743 5743 5743 5742 5741 5740 5738 5737 5735 5734 5732 5730 5728 5725 5723 5721 5718 5716 5714 5711 5709 5706 5704 5702 5700 5698 5696 5693 5691 5688
5733 5734 5735 5736 5737 5737 5738 5738 5738 5737 5737 5736 5735 5734 5732 5731 5729 5728 5726 5724 5722 5720 5718 5716 5714 5711 5709 5707 5705 5703 5700 5699 5697 5695 5693 5691 5688 5686
5729 5730 5731 5732 5732 5732 5732 5733 5732 5732 5731 5730 5729 5728 5727 5725 5724 5722 5720 5719 5717 5715 5713 5711 5709 5707 5705 5703 5701 5699 5697 5696 5694 5693 5691 5689 5686 5684
5726 5726 5727 5727 5728 5728 5728 5728 5727 5727 5726 5725 5724 5723 5722 5720 5719 5717 5716 5714 5713 5711 5709 5707 5706 5704 5702 5700 5699 5697 5695 5694 5692 5690 5689 5687 5684 5682
5722 5723 5723 5723 5723 5724 5723 5723 5723 5722 5721 5720 5719 5718 5717 5716 5715 5714 5712 5710 5709 5707 5705 5704 5702 5701 5699 5698 5696 5695 5693 5692 5690 5689 5687 5684 5682 5680
5719 5720 5720 5720 5720 5720 5719 5719 5718 5718 5717 5716 5715 5715 5713 5712 5711 5710 5709 5707 5705 5704 5702 5701 5699 5698 5697 5695 5694 5693 5691 5690 5689 5687 5685 5683 5680 5677
5717 5717 5717 5717 5717 5716 5716 5716 5715 5715 5714 5713 5712 5712 5711 5710 5708 5707 5705 5704 5702 5701 5700 5699 5697 5696 5695 5694 5692 5691 5690 5689 5687 5685 5683 5681 5678 5675
5715 5714 5714 5714 5714 5714 5714 5713 5713 5712 5711 5711 5710 5709 5708 5707 5706 5704 5703 5702 5700 5699 5698 5697 5696 5694 5693 5692 5691 5690 5688 5687 5685 5683 5681 5679 5676 5673
5713 5713 5713 5712 5712 5712 5712 5712 5711 5710 5710 5709 5708 5707 5706 5705 5704 5703 5701 5700 5699 5698 5697 5695 5694 5693 5692 5691 5690 5688 5687 5685 5683 5681 5679 5676 5673 5671
5712 5712 5712 5712 5711 5711 5711 5710 5710 5709 5708 5708 5707 5706 5705 5704 5703 5702 5700 5699 5698 5697 5696 5695 5693 5692 5691 5690 5688 5687 5685 5683 5681 5679 5676 5674 5671 5668
5712 5712 5712 5712 5711 5711 5710 5710 5709 5708 5708 5707 5706 5705 5704 5703 5702 5701 5700 5699 5697 5696 5695 5694 5693 5691 5690 5689 5687 5685 5684 5681 5679 5676 5674 5671 5668 5664
5713 5713 5713 5712 5712 5711 5710 5710 5709 5709 5708 5707 5706 5705 5704 5703 5702 5701 5700 5699 5697 5696 5695 5693 5692 5691 5689 5687 5685 5683 5681 5679 5676 5674 5671 5668 5665 5661
5715 5714 5714 5713 5713 5712 5711 5711 5710 5709 5708 5707 5707 5706 5705 5703 5702 5701 5700 5698 5697 5696 5694 5693 5691 5689 5687 5685 5683 5681 5678 5676 5673 5670 5668 5665 5661 5658